When you browse on this site, cookies collect data to enhance your experience and personalize the content and advertising you see.
Visit our Privacy Policy to learn more. By continuing to use the site, you agree to this use of cookies and data.
  • In Hungary
  • List of Countries
  • For 7 days
  • Water Temperature
  • Weather Map
  • News
  • Weather Widgets
  • user-avatar
    Login

    Hourly Weather Terutli

    Today, 20 October, Sunday

    Time Temperature Precipitation Wind Pressure Humidity
    00:00 +5°C° 0 mm 0 mps 597 mmHg 78%
    01:00 +5°C° 0 mm 0 mps 597 mmHg 79%
    02:00 +6°C° 0 mm 1 mps 597 mmHg 80%
    03:00 +6°C° 0 mm 1 mps 596 mmHg 80%
    04:00 +6°C° 0 mm 1 mps 597 mmHg 80%
    05:00 +5°C° 0 mm 1 mps 597 mmHg 80%
    06:00 +5°C° 0 mm 1 mps 597 mmHg 80%
    07:00 +7°C° 0 mm 1 mps 598 mmHg 73%
    08:00 +9°C° 0 mm 1 mps 599 mmHg 67%
    09:00 +10°C° 0 mm 0 mps 600 mmHg 60%
    10:00 +12°C° 0 mm 1 mps 600 mmHg 58%
    11:00 +13°C° 0 mm 1 mps 601 mmHg 56%
    12:00 +14°C° 0 mm 1 mps 601 mmHg 54%
    13:00 +13°C° 0.3 mm 1 mps 601 mmHg 57%
    14:00 +13°C° 0.3 mm 1 mps 600 mmHg 61%
    15:00 +12°C° 0.3 mm 1 mps 600 mmHg 65%
    16:00 +11°C° 0.3 mm 1 mps 599 mmHg 73%
    17:00 +9°C° 0.3 mm 1 mps 599 mmHg 80%
    18:00 +7°C° 0.3 mm 0 mps 598 mmHg 88%
    19:00 +6°C° 0.1 mm 0 mps 598 mmHg 89%
    20:00 +6°C° 0.1 mm 0 mps 598 mmHg 90%
    21:00 +5°C° 0.1 mm 0 mps 598 mmHg 90%
    22:00 +5°C° 0.1 mm 0 mps 598 mmHg 91%
    23:00 +5°C° 0.1 mm 0 mps 598 mmHg 91%

    Tomorrow, 21 October, Monday

    Time Temperature Precipitation Wind Pressure Humidity
    00:00 +5°C° 0.1 mm 0 mps 598 mmHg 92%
    01:00 +5°C° 0.1 mm 0 mps 598 mmHg 92%
    02:00 +5°C° 0.1 mm 0 mps 598 mmHg 93%
    03:00 +5°C° 0.1 mm 0 mps 598 mmHg 94%
    04:00 +5°C° 0 mm 0 mps 598 mmHg 94%
    05:00 +5°C° 0 mm 0 mps 598 mmHg 94%
    06:00 +4°C° 0 mm 0 mps 598 mmHg 94%
    07:00 +6°C° 0 mm 0 mps 599 mmHg 89%
    08:00 +7°C° 0 mm 0 mps 599 mmHg 84%
    09:00 +10°C° 0 mm 1 mps 600 mmHg 79%
    10:00 +10°C° 0 mm 1 mps 600 mmHg 76%
    11:00 +11°C° 0 mm 1 mps 600 mmHg 72%
    12:00 +12°C° 0 mm 1 mps 601 mmHg 69%
    13:00 +12°C° 0 mm 1 mps 600 mmHg 70%
    14:00 +11°C° 0 mm 1 mps 600 mmHg 71%
    15:00 +11°C° 0 mm 1 mps 600 mmHg 72%
    16:00 +10°C° 0 mm 1 mps 599 mmHg 79%
    17:00 +9°C° 0 mm 1 mps 599 mmHg 85%
    18:00 +8°C° 0 mm 1 mps 598 mmHg 92%
    19:00 +7°C° 0 mm 1 mps 598 mmHg 92%
    20:00 +7°C° 0 mm 1 mps 598 mmHg 91%
    21:00 +7°C° 0 mm 1 mps 598 mmHg 91%
    22:00 +7°C° 0 mm 1 mps 598 mmHg 90%
    23:00 +7°C° 0 mm 1 mps 598 mmHg 90%

    Day after tomorrow, 22 October, Tuesday

    Time Temperature Precipitation Wind Pressure Humidity
    00:00 +7°C° 0 mm 1 mps 598 mmHg 89%
    01:00 +7°C° 0 mm 1 mps 598 mmHg 89%
    02:00 +7°C° 0 mm 1 mps 598 mmHg 89%
    03:00 +6°C° 0 mm 1 mps 597 mmHg 89%
    04:00 +6°C° 0 mm 1 mps 597 mmHg 89%
    05:00 +5°C° 0 mm 1 mps 597 mmHg 89%
    06:00 +3°C° 0 mm 0 mps 596 mmHg 90%
    07:00 +5°C° 0 mm 0 mps 597 mmHg 81%
    08:00 +7°C° 0 mm 0 mps 598 mmHg 72%
    09:00 +10°C° 0 mm 1 mps 599 mmHg 63%
    10:00 +11°C° 0 mm 1 mps 599 mmHg 61%
    11:00 +12°C° 0 mm 1 mps 600 mmHg 58%
    12:00 +12°C° 0 mm 2 mps 600 mmHg 56%
    13:00 +12°C° 0 mm 2 mps 600 mmHg 59%
    14:00 +12°C° 0 mm 2 mps 599 mmHg 61%
    15:00 +12°C° 0 mm 2 mps 599 mmHg 64%
    16:00 +10°C° 0 mm 1 mps 598 mmHg 73%
    17:00 +8°C° 0 mm 1 mps 598 mmHg 82%
    18:00 +6°C° 0 mm 0 mps 597 mmHg 90%
    19:00 +5°C° 0 mm 0 mps 597 mmHg 90%
    20:00 +5°C° 0 mm 0 mps 597 mmHg 90%
    21:00 +5°C° 0 mm 0 mps 597 mmHg 90%
    22:00 +4°C° 0 mm 0 mps 597 mmHg 91%
    23:00 +4°C° 0 mm 0 mps 596 mmHg 92%

    23 October, Wednesday

    Time Temperature Precipitation Wind Pressure Humidity
    00:00 +4°C° 0 mm 0 mps 596 mmHg 93%
    01:00 +4°C° 0 mm 0 mps 596 mmHg 92%
    02:00 +4°C° 0 mm 0 mps 596 mmHg 92%
    03:00 +4°C° 0 mm 0 mps 596 mmHg 91%
    04:00 +4°C° 0 mm 0 mps 596 mmHg 91%
    05:00 +4°C° 0 mm 0 mps 596 mmHg 90%
    06:00 +4°C° 0 mm 0 mps 596 mmHg 89%
    07:00 +5°C° 0 mm 0 mps 597 mmHg 81%
    08:00 +6°C° 0 mm 0 mps 598 mmHg 74%
    09:00 +8°C° 0 mm 0 mps 598 mmHg 66%
    10:00 +9°C° 0 mm 1 mps 598 mmHg 64%
    11:00 +10°C° 0 mm 1 mps 599 mmHg 61%
    12:00 +10°C° 0 mm 2 mps 599 mmHg 58%
    13:00 +10°C° 0 mm 2 mps 598 mmHg 62%
    14:00 +9°C° 0 mm 2 mps 598 mmHg 66%
    15:00 +9°C° 0 mm 2 mps 598 mmHg 69%
    16:00 +8°C° 0 mm 1 mps 597 mmHg 77%
    17:00 +7°C° 0 mm 1 mps 597 mmHg 84%
    18:00 +6°C° 0 mm 1 mps 596 mmHg 91%
    19:00 +6°C° 0 mm 1 mps 596 mmHg 91%
    20:00 +5°C° 0 mm 1 mps 597 mmHg 90%
    21:00 +5°C° 0 mm 1 mps 597 mmHg 90%
    22:00 +5°C° 0 mm 1 mps 597 mmHg 89%
    23:00 +5°C° 0 mm 1 mps 596 mmHg 88%

    24 October, Thursday

    Time Temperature Precipitation Wind Pressure Humidity
    00:00 +5°C° 0 mm 1 mps 596 mmHg 88%
    01:00 +5°C° 0 mm 1 mps 596 mmHg 87%
    02:00 +5°C° 0 mm 1 mps 596 mmHg 87%
    03:00 +5°C° 0 mm 1 mps 596 mmHg 87%
    04:00 +4°C° 0 mm 1 mps 596 mmHg 88%
    05:00 +4°C° 0 mm 1 mps 595 mmHg 89%
    06:00 +3°C° 0 mm 1 mps 595 mmHg 91%
    07:00 +5°C° 0 mm 1 mps 596 mmHg 83%
    08:00 +6°C° 0 mm 1 mps 596 mmHg 76%
    09:00 +6°C° 0 mm 2 mps 597 mmHg 69%
    10:00 +7°C° 0 mm 2 mps 597 mmHg 65%
    11:00 +8°C° 0 mm 2 mps 597 mmHg 61%
    12:00 +9°C° 0 mm 2 mps 598 mmHg 57%
    13:00 +9°C° 0 mm 2 mps 597 mmHg 58%
    14:00 +10°C° 0 mm 1 mps 597 mmHg 58%
    15:00 +10°C° 0 mm 1 mps 597 mmHg 58%
    16:00 +8°C° 0 mm 1 mps 596 mmHg 67%
    17:00 +7°C° 0 mm 1 mps 595 mmHg 77%
    18:00 +5°C° 0 mm 1 mps 594 mmHg 86%
    19:00 +4°C° 0 mm 1 mps 594 mmHg 86%
    20:00 +4°C° 0 mm 1 mps 594 mmHg 86%
    21:00 +4°C° 0 mm 1 mps 594 mmHg 86%
    22:00 +4°C° 0 mm 1 mps 594 mmHg 86%
    23:00 +3°C° 0 mm 1 mps 594 mmHg 86%

    25 October, Friday

    Time Temperature Precipitation Wind Pressure Humidity
    00:00 +3°C° 0 mm 1 mps 594 mmHg 87%
    01:00 +3°C° 0 mm 1 mps 594 mmHg 86%
    02:00 +3°C° 0 mm 1 mps 593 mmHg 86%
    03:00 +3°C° 0 mm 1 mps 593 mmHg 86%
    04:00 +3°C° 0 mm 1 mps 593 mmHg 84%
    05:00 +3°C° 0 mm 1 mps 593 mmHg 83%
    06:00 +3°C° 0 mm 1 mps 593 mmHg 82%
    07:00 +5°C° 0 mm 1 mps 594 mmHg 76%
    08:00 +6°C° 0 mm 1 mps 595 mmHg 70%
    09:00 +7°C° 0 mm 2 mps 596 mmHg 65%
    10:00 +8°C° 0 mm 2 mps 596 mmHg 62%
    11:00 +9°C° 0 mm 2 mps 597 mmHg 59%
    12:00 +12°C° 0 mm 2 mps 597 mmHg 56%
    13:00 +10°C° 0 mm 2 mps 597 mmHg 58%
    14:00 +10°C° 0 mm 2 mps 596 mmHg 60%
    15:00 +11°C° 0 mm 1 mps 596 mmHg 62%
    16:00 +9°C° 0 mm 1 mps 595 mmHg 71%
    17:00 +7°C° 0 mm 1 mps 595 mmHg 79%
    18:00 +5°C° 0 mm 1 mps 594 mmHg 87%
    19:00 +5°C° 0 mm 1 mps 594 mmHg 88%
    20:00 +5°C° 0 mm 1 mps 594 mmHg 88%
    21:00 +4°C° 0 mm 1 mps 594 mmHg 88%
    22:00 +4°C° 0 mm 1 mps 593 mmHg 89%
    23:00 +4°C° 0 mm 1 mps 593 mmHg 91%
    Show more